Location: ???????
(56.2167°N, 38.0500°E)
Time: 06:26:23
(UTC+00:00)

ADEOS II - Pass Details

Date: 19 May 2025
Orbit: 793 x 796 km, 98.7° (Epoch: 15 June)

Event Time Altitude Azimuth Distance (km) Brightness Sun altitude
Rises 23:37:58 0° 20° (NNE) 3,311 7.3 -8.8°
Reaches altitude 10° 23:40:27 10° 28° (NNE) 2,377 6.3 -8.6°
Maximum altitude 23:45:22 40° 97° (E) 1,171 3.2 -8.2°
Drops below altitude 10° 23:50:15 10° 166° (SSE) 2,360 4.1 -7.8°
Enters shadow 23:52:33 - 174° (S) 3,220 4.8 -7.6°
